Location: Albuquerque Trailhead
(34.7934°N, 106.3736°W)
Time: 00:38:20
(UTC+00:00)

NOSS 3-1 (A) - Pass Details

Date: 20 June 2021
Orbit: 729 x 1483 km, 63.4° (Epoch: 23 July)

Event Time Altitude Azimuth Distance (km) Brightness Sun altitude
Exits shadow 07:52:19 42° 310° (NW) 1,150 4.0 -30.8°
Drops below altitude 10° 07:57:51 10° 19° (NNE) 2,611 6.6 -30.5°
Sets 08:00:45 0° 26° (NNE) 3,676 7.6 -30.4°
